Regional Weather Roundup
Issued by NWS San Diego, CA

Home | Current Version | Previous Version | Text Only | Print | Product List | Glossary On
Versions: 1 2 3 4 5 6 7 8 9 10 11 12 13 14 15 16 17 18 19 20 21 22 23 24 25 26 27 28 29 30 31 32 33 34 35 36 37 38 39 40 41 42 43 44 45 46 47 48 49 50
000
ASUS46 KSGX 231811
RWRSGX

SAN DIEGO HOURLY WEATHER ROUNDUP
NATIONAL WEATHER SERVICE SAN DIEGO CA
1100 AM PDT WED MAY 23 2018

NOTE: "FAIR" INDICATES FEW OR NO CLOUDS BELOW 12,000 FEET WITH NO
SIGNIFICANT WEATHER AND/OR OBSTRUCTIONS TO VISIBILITY.

CAZ042-043-060-061-PZZ750-775-231900-

GREATER SAN DIEGO AREA

CITY           SKY/WX    TMP DP  RH WIND       PRES   REMARKS
SAN DIEGO AP   CLOUDY    62  54  74 W9        30.00S
NATIONAL CITY    N/A     64  57  76 SW7       30.00R
CHULA VISTA      N/A     65  57  75 W5        29.90S
IMPERIAL BEACH PTSUNNY   63  54  72 SW9       29.99S
BROWN FIELD    PTSUNNY   64  54  69 NW6       29.98S
MIRAMAR MCAS   CLOUDY    65  53  65 W6        29.98S
MONTGOMERY FLD CLOUDY    63  52  67 SW9       29.99R
GILLESPIE FLD  PTSUNNY   64  50  59 CALM      29.97F

$$

NORTH SAN DIEGO COUNTY

CITY           SKY/WX    TMP DP  RH WIND       PRES   REMARKS
CAMP PENDLETON CLOUDY    61  56  83 W7        29.99R
OCEANSIDE AP   CLOUDY    62  56  80 W7        29.98R
OCEANSIDE HBR    N/A     61  58  88 E3        30.01R
VISTA            N/A     62  55  80 CALM      29.96R
CARLSBAD       PTSUNNY   60  55  83 VRB6      29.98R
DEL MAR          N/A     63  58  83 CALM      30.00S
LA JOLLA SCRIP   N/A     61  57  87 SW3       29.99R
FALLBROOK        N/A     62  58  86 CALM      30.00R
ESCONDIDO        N/A     64  54  69 N5        29.98S
SAN MARCOS       N/A     62  55  76 NW6       30.02S
POWAY            N/A     66  54  65 CALM      29.97S

$$

EAST SAN DIEGO COUNTY

CITY           SKY/WX    TMP DP  RH WIND       PRES   REMARKS
RAMONA         MOSUNNY   66  51  58 NW13      29.97F
LA MESA          N/A     63  52  67 W7        29.92S
JAMUL            N/A     64  53  67 CALM      29.97F
CAMPO            N/A     66  47  50 SW9       29.93S

$$

ORANGE COUNTY AND THE LOS ANGELES BASIN

CITY           SKY/WX    TMP DP  RH WIND       PRES   REMARKS
JOHN WAYNE AP  CLOUDY    62  55  77 SW5       29.99S
LAGUNA BEACH     N/A     60  58  94 CALM      29.94S
LAKE FOREST FR   N/A     60  52  73 CALM      29.88R
HUNTINGTON BCH   N/A     63  58  84 W3        30.00R
LOS ALAMITOS   CLOUDY    64  54  71 W5        29.99R
FULLERTON      CLOUDY    65  55  70 CALM      29.98R
LONG BEACH     CLOUDY    63  54  72 W5        29.99S
L.A. AP        CLOUDY    63  54  72 W9        30.00R

$$

THE INLAND EMPIRE

CITY           SKY/WX    TMP DP  RH WIND       PRES   REMARKS
CORONA         CLOUDY    63  53  70 W5        29.99R
CHINO          CLOUDY    66  53  63 W7        30.00R
ONTARIO        CLOUDY    63  52  67 VRB6      29.98R
SAN BERNARDINO CLOUDY    63  50  63 CALM      29.99R HAZE
RIVERSIDE AP   CLOUDY    62  52  69 VRB3      29.98S
MARCH ARB      CLOUDY    61  52  73 NW6       29.98R
HORSETHIEF CYN   N/A     61  49  65 CALM      29.97S
PERRIS           N/A     61  55  82 CALM        N/A
HEMET EAST       N/A     61  49  65 CALM      29.90S
FRENCH VALLEY  CLOUDY    61  50  67 S3        29.99R
TEMECULA         N/A     62  55  76 SW1       30.04S

$$

SAN BERNARDINO AND RIVERSIDE COUNTY MOUNTAINS

CITY           SKY/WX    TMP DP  RH WIND       PRES   REMARKS
BIG BEAR AP    SUNNY     61  32  33 NE12      30.09R
ANGELUS OAKS     N/A     64  43  46 CALM      29.80S

$$

SOUTHERN DESERT INCLUDING THE COACHELLA VALLEY

CITY           SKY/WX    TMP DP  RH WIND       PRES   REMARKS
PALM SPRINGS   SUNNY     80  50  34 NW7       29.89S
THOUSAND PALMS   N/A     79  52  38 W3        29.85S
PALM DESERT      N/A     82  53  36 CALM        N/A
THERMAL        SUNNY     84  48  28 E6        29.84S
BLYTHE         SUNNY     82  48  30 MISG      29.87S
IMPERIAL AP    SUNNY     82  52  35 VRB3      29.85S
EL CENTRO NAS  SUNNY     81  44  27 VRB3      29.87S
YUMA AZ        SUNNY     83  44  25 S5G16     29.87S
MEXICALI       SUNNY     81  50  34 E6        29.87S

$$

UPPER DESERT

CITY           SKY/WX    TMP DP  RH WIND       PRES   REMARKS
VICTORVILLE AP SUNNY    N/A N/A N/A CALM      29.94R
HESPERIA         N/A     77  44  30 N2        29.87S
APPLE VALLEY     N/A     77  47  34 NW3       29.89R
PALMDALE       SUNNY     76  47  35 CALM      29.93R
LANCASTER      SUNNY     74  46  36 W7        29.92R
EDWARDS AFB    MOSUNNY   75  45  34 CALM      29.89S
DAGGETT        SUNNY     79  48  33 VRB3      29.89S
29 PALMS N     MOSUNNY   82  36  19 SE13      29.97R
NEEDLES        SUNNY     89  33  13 MISG      29.87S

$$

REGIONAL REPORTS

CITY           SKY/WX    TMP DP  RH WIND       PRES   REMARKS
SANTA BARBARA  CLOUDY    62  52  69 S6        29.99R
LAS VEGAS NV   MOSUNNY   85  36  17 E7        29.89R
PHOENIX AZ     SUNNY     84  33  16 CALM      29.88S
TIJUANA        CLOUDY    63  50  63 N3        30.00F
ENSENADA NW      N/A     63  32  31 W2        29.91F

$$

OFFSHORE ISLANDS

CITY           SKY/WX    TMP DP  RH WIND       PRES   REMARKS
CATALINA ARPT  FOG       53  50  90 W6        30.00S VSB<1/4
SAN NICOLAS IS CLOUDY    59  49  69 S6        30.00R

$$

MARINE AND OFFSHORE BUOY REPORTS

STATION/POSITION SKY/WX   TEMP    WIND        PRES    VSBY  SWELL
                          AIR SEA DIR/SP/G                  HT/PER/DIR
                          (F)     (DEG/KT/KT) (MB)    (MI)  (FT/S/D)
TANNER BANKS               57 61              1015.8
S CLEMENTE BASIN           58 62  280/ 12/ 12 1015.7S         5/220/16
SAN NICOLAS IS.               57                N/A           3/190/17
SO. S. ROSA ISLA           54 56  320/  8/ 10 1015.7R         7/200/16
W. S. BARBARA CH              55  340/  8/ 10 1015.7R         5/190/17
S. MONICA BASIN                   250/  4/  6 1015.8
S PEDRO CHANNEL               62                N/A           2/190/17
CMP PENDLETON NS              64                N/A           3/220/15
OCEANSIDE OFFSHR              64                N/A           3/200/17
TORREY PINES OTR              64                N/A           3/200/17
SAN DIEGO BAY                 65              1015.1R
POINT LOMA SOUTH              64                N/A           5/190/17

$$




USA.gov is the U.S. government's official web portal to all federal, state and local government web resources and services.